Total_Precipitation_Accumulation
2.73 2.82 2.76 2.64 2.44 2.32 2.15 2.05 1.99 1.92 1.92 1.93 1.95 1.97 1.99 1.98 2.01 2.00 1.84 1.88 1.94 2.09 2.20 2.27 2.31 2.35 2.46 2.42 2.44 2.47 2.59 2.78 2.88 2.68 2.49 2.44 2.42 2.31 2.15 1.95 1.83 1.83 1.76
2.35 2.38 2.38 2.33 2.18 2.01 1.88 1.79 1.79 1.80 1.78 1.80 1.81 1.79 1.84 1.94 2.01 1.92 1.76 1.73 1.86 1.99 2.13 2.29 2.26 2.19 2.22 2.25 2.32 2.30 2.32 2.50 2.67 2.62 2.47 2.33 2.33 2.29 2.21 2.10 1.75 1.59 1.57
2.18 2.13 2.10 2.18 2.08 1.92 1.85 1.86 1.86 1.80 1.77 1.75 1.71 1.72 1.77 1.82 1.83 1.77 1.69 1.66 1.73 1.81 1.92 1.97 2.01 2.03 1.97 1.96 2.01 2.07 2.06 2.10 2.35 2.39 2.28 2.22 2.15 2.11 2.17 2.10 1.89 1.90 1.52
2.07 2.02 1.87 1.80 1.81 1.84 1.80 1.76 1.71 1.67 1.70 1.74 1.72 1.70 1.67 1.60 1.48 1.43 1.43 1.47 1.52 1.52 1.58 1.60 1.68 1.81 1.84 1.84 1.79 1.87 1.94 2.10 2.21 2.27 2.16 2.09 2.10 1.98 2.06 2.06 2.02 1.88 1.66
2.24 2.14 1.97 1.78 1.76 1.79 1.76 1.69 1.62 1.57 1.48 1.55 1.61 1.55 1.42 1.28 1.10 1.12 1.20 1.23 1.33 1.35 1.36 1.29 1.29 1.52 1.68 1.63 1.47 1.65 1.87 2.05 2.13 2.16 2.05 1.94 1.87 1.97 1.93 1.86 1.89 1.89 1.80
2.20 2.24 2.24 2.14 2.10 1.99 1.80 1.70 1.70 1.68 1.62 1.57 1.55 1.47 1.33 1.06 1.05 1.02 1.13 1.29 1.40 1.37 1.39 1.37 1.26 1.31 1.40 1.35 1.26 1.39 1.65 1.76 1.89 2.06 2.05 1.95 1.86 1.87 1.91 1.91 1.97 2.06 2.01
2.25 2.34 2.30 2.22 2.15 2.08 1.84 1.72 1.77 1.76 1.73 1.66 1.54 1.49 1.43 1.33 1.20 1.01 1.03 1.19 1.31 1.33 1.35 1.38 1.21 1.12 1.31 1.31 1.31 1.29 1.36 1.38 1.51 1.86 2.07 1.95 1.91 1.96 2.10 2.05 2.15 2.16 2.00
2.37 2.36 2.27 2.12 2.09 2.02 1.93 1.87 1.83 1.76 1.72 1.68 1.59 1.48 1.39 1.16 1.02 0.88 0.90 1.03 1.25 1.30 1.28 1.34 1.40 1.30 1.23 1.28 1.28 1.29 1.34 1.37 1.33 1.40 1.66 1.77 1.81 1.97 2.12 2.19 2.31 2.23 2.09
2.36 2.22 2.11 2.02 2.03 1.91 1.90 1.85 1.79 1.71 1.64 1.57 1.50 1.43 1.36 1.18 0.97 0.83 0.88 1.03 1.23 1.26 1.23 1.23 1.32 1.33 1.31 1.26 1.29 1.41 1.47 1.46 1.26 1.26 1.33 1.47 1.56 1.72 1.87 2.01 2.28 2.47 2.27
2.02 1.84 1.73 1.78 1.85 1.70 1.61 1.57 1.56 1.57 1.55 1.46 1.36 1.35 1.33 1.30 1.15 0.96 0.94 1.02 1.18 1.23 1.31 1.30 1.25 1.26 1.29 1.24 1.34 1.52 1.53 1.49 1.37 1.34 1.46 1.56 1.56 1.67 1.77 1.92 2.22 2.35 2.20
1.78 1.69 1.69 1.64 1.63 1.58 1.56 1.57 1.49 1.42 1.45 1.45 1.43 1.36 1.28 1.18 1.07 0.95 0.92 0.86 1.01 1.15 1.22 1.31 1.26 1.19 1.17 1.19 1.32 1.41 1.42 1.40 1.52 1.65 1.68 1.65 1.67 1.73 1.75 1.80 2.05 2.20 2.24
1.64 1.58 1.64 1.60 1.47 1.55 1.70 1.64 1.58 1.57 1.54 1.48 1.44 1.33 1.18 1.08 0.95 0.86 0.86 0.87 0.93 1.08 1.21 1.25 1.20 1.15 1.14 1.20 1.22 1.28 1.30 1.38 1.57 1.77 1.77 1.70 1.60 1.58 1.63 1.67 1.85 2.03 2.09
1.64 1.61 1.53 1.44 1.52 1.59 1.71 1.66 1.57 1.54 1.42 1.30 1.25 1.17 1.04 0.93 0.83 0.79 0.79 0.83 0.91 0.98 1.07 1.12 1.09 1.09 1.10 1.23 1.27 1.29 1.39 1.58 1.72 1.80 1.80 1.73 1.62 1.56 1.56 1.56 1.68 1.90 1.91
1.69 1.64 1.51 1.40 1.38 1.44 1.50 1.52 1.44 1.36 1.28 1.18 1.12 1.05 0.99 0.94 0.84 0.78 0.79 0.81 0.84 0.89 0.94 1.02 1.10 1.15 1.17 1.29 1.42 1.51 1.56 1.63 1.64 1.77 1.83 1.75 1.63 1.59 1.61 1.60 1.72 1.84 1.88
1.57 1.43 1.32 1.20 1.17 1.22 1.22 1.21 1.20 1.10 1.05 1.04 0.96 0.89 0.93 0.92 0.82 0.82 0.80 0.79 0.82 0.85 0.88 1.03 1.25 1.31 1.40 1.49 1.53 1.58 1.63 1.58 1.54 1.58 1.68 1.73 1.73 1.66 1.60 1.55 1.67 1.75 1.82
1.46 1.22 1.06 0.99 0.98 0.91 0.89 0.90 0.89 0.87 0.86 0.82 0.82 0.78 0.73 0.72 0.70 0.69 0.72 0.77 0.82 0.89 0.93 1.11 1.23 1.30 1.40 1.47 1.49 1.50 1.55 1.57 1.51 1.52 1.57 1.59 1.59 1.58 1.61 1.56 1.59 1.75 1.80
1.25 1.06 0.88 0.83 0.85 0.82 0.82 0.92 0.95 0.81 0.76 0.73 0.74 0.71 0.70 0.68 0.65 0.69 0.78 0.84 0.92 1.04 1.13 1.25 1.25 1.32 1.40 1.36 1.38 1.41 1.45 1.47 1.42 1.43 1.41 1.40 1.42 1.44 1.51 1.55 1.52 1.58 1.61
0.94 0.86 0.79 0.79 0.77 0.71 0.70 0.79 0.90 0.97 0.94 0.82 0.75 0.75 0.71 0.74 0.73 0.77 0.87 0.91 1.05 1.19 1.27 1.34 1.34 1.34 1.35 1.35 1.35 1.36 1.32 1.29 1.28 1.33 1.36 1.36 1.37 1.36 1.37 1.38 1.39 1.40 1.49
0.76 0.75 0.76 0.75 0.69 0.62 0.60 0.63 0.66 0.75 0.88 0.92 0.86 0.85 0.85 0.89 0.90 0.93 0.98 1.00 1.12 1.22 1.23 1.27 1.31 1.29 1.27 1.32 1.32 1.24 1.18 1.17 1.19 1.19 1.22 1.27 1.30 1.27 1.28 1.25 1.25 1.29 1.36
0.67 0.66 0.70 0.68 0.66 0.67 0.63 0.62 0.65 0.71 0.80 0.86 0.88 0.87 0.91 1.00 1.07 1.09 1.08 1.06 1.07 1.11 1.12 1.12 1.09 1.07 1.12 1.16 1.14 1.08 1.04 1.08 1.13 1.13 1.14 1.14 1.14 1.16 1.18 1.18 1.18 1.22 1.27
0.60 0.61 0.63 0.60 0.60 0.62 0.65 0.70 0.74 0.77 0.81 0.90 0.93 0.94 0.96 0.99 1.08 1.07 1.09 1.06 1.01 1.01 1.04 1.02 0.97 0.96 0.99 1.05 1.07 1.05 1.00 0.99 1.01 1.07 1.09 1.07 1.06 1.06 1.02 1.02 1.06 1.08 1.09
0.75 0.72 0.65 0.62 0.60 0.60 0.61 0.69 0.82 0.92 0.96 0.98 0.99 0.96 0.96 0.91 0.98 1.02 1.01 1.00 0.96 0.94 0.92 0.91 0.85 0.85 0.88 0.94 1.00 1.00 0.96 0.94 0.97 1.01 1.01 0.99 0.99 0.98 0.97 0.96 0.98 1.02 1.03
0.77 0.74 0.72 0.71 0.63 0.62 0.61 0.64 0.75 0.84 0.90 0.98 0.99 0.94 0.90 0.89 0.93 0.97 0.95 0.84 0.73 0.71 0.73 0.80 0.81 0.78 0.77 0.79 0.81 0.83 0.84 0.88 0.91 0.93 0.93 0.89 0.91 0.89 0.89 0.88 0.86 0.92 0.98
0.78 0.76 0.78 0.82 0.74 0.68 0.66 0.66 0.70 0.73 0.74 0.81 0.89 0.88 0.87 0.90 0.87 0.82 0.78 0.67 0.59 0.58 0.59 0.62 0.69 0.71 0.70 0.70 0.72 0.71 0.72 0.75 0.77 0.74 0.73 0.75 0.80 0.78 0.79 0.81 0.82 0.85 0.91
0.74 0.80 0.83 0.83 0.82 0.79 0.73 0.69 0.70 0.70 0.71 0.77 0.84 0.83 0.80 0.79 0.81 0.79 0.73 0.68 0.62 0.59 0.57 0.56 0.56 0.57 0.59 0.60 0.62 0.61 0.65 0.69 0.69 0.65 0.61 0.63 0.67 0.69 0.76 0.82 0.83 0.87 0.89
0.53 0.63 0.76 0.79 0.81 0.80 0.76 0.72 0.73 0.72 0.72 0.73 0.74 0.75 0.74 0.74 0.74 0.74 0.70 0.66 0.62 0.59 0.55 0.51 0.49 0.48 0.51 0.56 0.58 0.58 0.58 0.57 0.57 0.62 0.61 0.63 0.67 0.70 0.75 0.80 0.79 0.85 0.92